Regional Weather Roundup
Issued by NWS

Home | Current Version | Previous Version | Graphics & Text | Print | Product List | Glossary On
Versions: 1 2 3 4 5 6 7 8 9 10 11 12 13 14 15 16 17 18 19 20 21 22 23 24 25 26 27 28 29 30 31 32 33 34 35 36 37 38 39 40 41 42 43 44 45 46 47 48 49 50
000
ASUS43 KLSX 291810
RWRMO

WEATHER SUMMARY FOR MISSOURI
NATIONAL WEATHER SERVICE SPRINGFIELD MO
100 PM CDT SAT APR 29 2017

NOTE: "FAIR" INDICATES FEW OR NO CLOUDS BELOW 12,000 FEET WITH NO
       SIGNIFICANT WEATHER AND/OR OBSTRUCTIONS TO VISIBILITY.
       CURRENT SKY AND/OR WEATHER CONDITIONS ARE NOT AVAILABLE FOR
       CHILLICOTHE AND FARMINGTON.

MOZ001>031-035>038-043-044-053-054-291900-
...NORTHERN AND WESTERN MISSOURI...

CITY           SKY/WX    TMP DP  RH WIND       PRES   REMARKS
KANSAS CTY INT LGT RAIN  48  46  93 E17G29    29.88F
6HR MIN TEMP:  45; 6HR MAX TEMP:  48; 6HR PCP:  0.98;

KANSAS C DTWN  TSTM      50  47  89 NE15G22   29.88F
6HR MIN TEMP:  48; 6HR MAX TEMP:  50; 6HR PCP:  0.65;

LEE`S SUMMIT   LGT RAIN  48  48 100 NE14G32   29.85F
6HR MIN TEMP:  46; 6HR MAX TEMP:  48; 6HR PCP:  0.98;

ST JOSEPH      LGT RAIN  46  45  96 NE16G26   29.87F
6HR MIN TEMP:  45; 6HR MAX TEMP:  46; 6HR PCP:  0.52;

CHILLICOTHE      N/A     48  47  96 NE10      29.99S
6HR MIN TEMP:  47; 6HR MAX TEMP:  48; 6HR PCP:  0.55;

KIRKSVILLE     LGT RAIN  47  30  51 NE16G24   30.00R
6HR MIN TEMP:  46; 6HR MAX TEMP:  48; 6HR PCP:  0.60;


$$
MOZ066>068-077>081-088>096-101>105-291900-
...SOUTHWEST MISSOURI...

CITY           SKY/WX    TMP DP  RH WIND       PRES   REMARKS
SPRINGFIELD    TSTM      59  58  96 E10       29.75F FOG
6HR MIN TEMP:  59; 6HR MAX TEMP:  62; 6HR PCP:  1.83;

JOPLIN         TSTM      56  55  97 NE9       29.71F
6HR MIN TEMP:  53; 6HR MAX TEMP:  58; 6HR PCP:  2.67;

BRANSON        CLOUDY    75  72  88 SE9       29.74F FOG

$$
MOZ032>034-039>042-045>050-055>058-069>072-291900-
...CENTRAL MISSOURI...

CITY           SKY/WX    TMP DP  RH WIND       PRES   REMARKS
COLUMBIA       TSTM      54  54 100 N22G28    29.76F FOG
6HR MIN TEMP:  53; 6HR MAX TEMP:  57; 6HR PCP:  1.38;

JEFFERSON CITY TSTM      62  58  86 NE10      29.72F FOG
6HR MIN TEMP:  57; 6HR MAX TEMP:  63; 6HR PCP:  1.40;

ROLLA          LGT RAIN  64  50  60 SE20      29.73F
6HR MIN TEMP:  57; 6HR MAX TEMP:  64; 6HR PCP:  0.25;

SEDALIA        HVY RAIN  52  52 100 N22G30    29.88R VSB 1
6HR MIN TEMP:  51; 6HR MAX TEMP:  54; 6HR PCP:  1.40;

WHITEMAN AFB   TSTM      49  49 100 N20G25    29.86F
OSAGE BEACH    TSTM      59  57  94 W16G38    29.81R SQUALL  FOG

$$
MOZ051-052-059>065-291900-
...EAST CENTRAL MISSOURI...

CITY           SKY/WX    TMP DP  RH WIND       PRES   REMARKS
ST LOUIS INTL  LGT RAIN  63  60  90 E10       29.85F
6HR MIN TEMP:  58; 6HR MAX TEMP:  63; 6HR PCP:  0.82;

SPIRIT OF STL  CLOUDY    62  61  96 E7        29.82F FOG
6HR MIN TEMP:  58; 6HR MAX TEMP:  62; 6HR PCP:  0.62;

ST CHARLES     CLOUDY    58  58 100 NE9G21    29.85F
6HR MIN TEMP:  56; 6HR MAX TEMP:  59; 6HR PCP:  0.66;


$$
MOZ072>076-082>087-097>100-106>115-291900-
...SOUTH CENTRAL AND SOUTHEAST MISSOURI...

CITY           SKY/WX    TMP DP  RH WIND       PRES   REMARKS
CAPE GIRARDEAU CLOUDY    80  69  69 SE16      29.84F
6HR MIN TEMP:  64; 6HR MAX TEMP:  80;

FARMINGTON     CLOUDY    72  68  87 SE14      29.84S
6HR MIN TEMP:  59; 6HR MAX TEMP:  72; 6HR PCP:  0.28;

POPLAR BLUFF   CLOUDY    80  70  71 S17G26    29.82F
6HR MIN TEMP:  67; 6HR MAX TEMP:  80;

WEST PLAINS    CLOUDY    77  69  76 S13       29.81R
6HR MIN TEMP:  61; 6HR MAX TEMP:  77; 6HR PCP:  0.47;


$$




USA.gov is the U.S. government's official web portal to all federal, state and local government web resources and services.